Location: *
(38.3914°N, 75.0697°W)
Time: 07:57:51
(UTC+00:00)

STARLINK-1055 - Pass Details

Date: 17 February 2020
Orbit: 548 x 551 km, 53.0° (Epoch: 01 April)

Event Time Altitude Azimuth Distance (km) Brightness Sun altitude
Exits shadow 09:14:17 26° 83° (E) 1,092 5.7 -30.9°
Drops below altitude 10° 09:16:27 10° 104° (ESE) 1,810 7.0 -30.5°
Enters shadow 10:17:55 -61° 315° (NW) 11,750 10.3 -18.5°
